When you browse on this site, cookies collect data to enhance your experience and personalize the content and advertising you see.
Visit our Privacy Policy to learn more. By continuing to use the site, you agree to this use of cookies and data.
  • In France
  • List of Countries
  • For 7 days
  • Water Temperature
  • Satellite Maps
  • Weather Map
  • Weather Widgets
  • user-avatar
    Login

    Hourly Weather Ganja

    Today, 20 April, Saturday

    Time Temperature Precipitation Wind Pressure Humidity
    00:00 +5°C° 0.3 mm 4 mps 724 mmHg 86%
    01:00 +5°C° 0.4 mm 3 mps 724 mmHg 86%
    02:00 +4°C° 0.4 mm 3 mps 724 mmHg 87%
    03:00 +4°C° 0.4 mm 3 mps 723 mmHg 87%
    04:00 +4°C° 0.6 mm 3 mps 724 mmHg 88%
    05:00 +4°C° 0.6 mm 3 mps 724 mmHg 88%
    06:00 +5°C° 0.6 mm 2 mps 724 mmHg 89%
    07:00 +5°C° 0.5 mm 2 mps 724 mmHg 88%
    08:00 +5°C° 0.5 mm 2 mps 724 mmHg 86%
    09:00 +6°C° 0.5 mm 2 mps 725 mmHg 85%
    10:00 +7°C° 0.2 mm 3 mps 725 mmHg 82%
    11:00 +8°C° 0.2 mm 3 mps 725 mmHg 78%
    12:00 +8°C° 0.2 mm 3 mps 725 mmHg 74%
    13:00 +9°C° 0 mm 3 mps 725 mmHg 72%
    14:00 +10°C° 0 mm 3 mps 725 mmHg 69%
    15:00 +10°C° 0 mm 3 mps 725 mmHg 67%
    16:00 +10°C° 0 mm 3 mps 725 mmHg 68%
    17:00 +8°C° 0 mm 4 mps 725 mmHg 70%
    18:00 +8°C° 0 mm 4 mps 726 mmHg 72%
    19:00 +7°C° 0 mm 4 mps 726 mmHg 74%
    20:00 +8°C° 0 mm 3 mps 727 mmHg 76%
    21:00 +7°C° 0 mm 3 mps 727 mmHg 78%
    22:00 +5°C° 0 mm 3 mps 727 mmHg 78%
    23:00 +5°C° 0 mm 3 mps 727 mmHg 79%

    Tomorrow, 21 April, Sunday

    Time Temperature Precipitation Wind Pressure Humidity
    00:00 +5°C° 0 mm 3 mps 727 mmHg 79%
    01:00 +5°C° 0 mm 2 mps 727 mmHg 80%
    02:00 +5°C° 0 mm 2 mps 727 mmHg 82%
    03:00 +4°C° 0 mm 2 mps 727 mmHg 83%
    04:00 +4°C° 0 mm 2 mps 727 mmHg 85%
    05:00 +4°C° 0 mm 2 mps 727 mmHg 86%
    06:00 +4°C° 0 mm 2 mps 727 mmHg 88%
    07:00 +5°C° 0 mm 2 mps 727 mmHg 84%
    08:00 +5°C° 0 mm 3 mps 727 mmHg 79%
    09:00 +7°C° 0 mm 3 mps 727 mmHg 74%
    10:00 +7°C° 0.1 mm 4 mps 727 mmHg 72%
    11:00 +8°C° 0.1 mm 4 mps 727 mmHg 69%
    12:00 +10°C° 0.1 mm 4 mps 726 mmHg 66%
    13:00 +10°C° 0.1 mm 4 mps 726 mmHg 65%
    14:00 +10°C° 0.1 mm 4 mps 726 mmHg 64%
    15:00 +10°C° 0.1 mm 4 mps 726 mmHg 63%
    16:00 +10°C° 0.1 mm 4 mps 726 mmHg 65%
    17:00 +10°C° 0.1 mm 4 mps 726 mmHg 66%
    18:00 +10°C° 0.1 mm 4 mps 726 mmHg 68%
    19:00 +9°C° 0 mm 3 mps 726 mmHg 70%
    20:00 +8°C° 0 mm 3 mps 727 mmHg 73%
    21:00 +8°C° 0 mm 2 mps 727 mmHg 75%
    22:00 +8°C° 0 mm 3 mps 727 mmHg 77%
    23:00 +7°C° 0 mm 3 mps 727 mmHg 78%

    Day after tomorrow, 22 April, Monday

    Time Temperature Precipitation Wind Pressure Humidity
    00:00 +7°C° 0 mm 3 mps 728 mmHg 80%
    01:00 +7°C° 0 mm 3 mps 727 mmHg 80%
    02:00 +7°C° 0 mm 3 mps 727 mmHg 80%
    03:00 +5°C° 0 mm 3 mps 727 mmHg 80%
    04:00 +5°C° 0 mm 3 mps 727 mmHg 81%
    05:00 +6°C° 0 mm 2 mps 727 mmHg 83%
    06:00 +6°C° 0 mm 2 mps 727 mmHg 84%
    07:00 +7°C° 0 mm 3 mps 727 mmHg 78%
    08:00 +8°C° 0 mm 3 mps 727 mmHg 72%
    09:00 +8°C° 0 mm 4 mps 727 mmHg 67%
    10:00 +10°C° 0 mm 4 mps 726 mmHg 64%
    11:00 +10°C° 0 mm 5 mps 726 mmHg 61%
    12:00 +10°C° 0 mm 5 mps 726 mmHg 58%
    13:00 +10°C° 0.1 mm 5 mps 725 mmHg 58%
    14:00 +10°C° 0.1 mm 5 mps 725 mmHg 59%
    15:00 +10°C° 0.1 mm 5 mps 725 mmHg 59%
    16:00 +10°C° 0.1 mm 5 mps 725 mmHg 62%
    17:00 +9°C° 0.1 mm 5 mps 725 mmHg 64%
    18:00 +10°C° 0.1 mm 4 mps 726 mmHg 67%
    19:00 +10°C° 0.1 mm 4 mps 726 mmHg 69%
    20:00 +9°C° 0.1 mm 3 mps 727 mmHg 70%
    21:00 +9°C° 0.1 mm 3 mps 727 mmHg 72%
    22:00 +9°C° 0.3 mm 2 mps 728 mmHg 73%
    23:00 +8°C° 0.3 mm 2 mps 728 mmHg 74%

    23 April, Tuesday

    Time Temperature Precipitation Wind Pressure Humidity
    00:00 +9°C° 0.3 mm 1 mps 728 mmHg 75%
    01:00 +9°C° 0.4 mm 1 mps 728 mmHg 78%
    02:00 +8°C° 0.4 mm 1 mps 729 mmHg 80%
    03:00 +8°C° 0.4 mm 1 mps 729 mmHg 83%
    04:00 +8°C° 0.2 mm 1 mps 729 mmHg 84%
    05:00 +7°C° 0.2 mm 0 mps 729 mmHg 84%
    06:00 +7°C° 0.2 mm 0 mps 730 mmHg 85%
    07:00 +8°C° 0.1 mm 0 mps 730 mmHg 81%
    08:00 +9°C° 0.1 mm 1 mps 730 mmHg 77%
    09:00 +10°C° 0.1 mm 1 mps 730 mmHg 73%
    10:00 +11°C° 0.1 mm 1 mps 730 mmHg 69%
    11:00 +12°C° 0.1 mm 2 mps 730 mmHg 65%
    12:00 +13°C° 0.1 mm 2 mps 730 mmHg 61%
    13:00 +13°C° 0 mm 2 mps 730 mmHg 59%
    14:00 +13°C° 0 mm 3 mps 730 mmHg 56%
    15:00 +13°C° 0 mm 3 mps 730 mmHg 53%
    16:00 +13°C° 0 mm 4 mps 731 mmHg 55%
    17:00 +12°C° 0 mm 4 mps 731 mmHg 57%
    18:00 +12°C° 0 mm 4 mps 731 mmHg 59%
    19:00 +11°C° 0 mm 3 mps 732 mmHg 61%
    20:00 +10°C° 0 mm 3 mps 732 mmHg 63%
    21:00 +9°C° 0 mm 3 mps 733 mmHg 66%
    22:00 +9°C° 0 mm 2 mps 733 mmHg 68%
    23:00 +8°C° 0 mm 2 mps 733 mmHg 70%

    24 April, Wednesday

    Time Temperature Precipitation Wind Pressure Humidity
    00:00 +9°C° 0 mm 1 mps 733 mmHg 72%
    01:00 +8°C° 0 mm 1 mps 733 mmHg 74%
    02:00 +8°C° 0 mm 1 mps 733 mmHg 76%
    03:00 +8°C° 0 mm 1 mps 733 mmHg 77%
    04:00 +8°C° 0 mm 1 mps 734 mmHg 76%
    05:00 +8°C° 0 mm 1 mps 734 mmHg 75%
    06:00 +8°C° 0 mm 1 mps 734 mmHg 75%
    07:00 +9°C° 0 mm 1 mps 734 mmHg 69%
    08:00 +11°C° 0 mm 1 mps 734 mmHg 63%
    09:00 +12°C° 0 mm 1 mps 734 mmHg 57%
    10:00 +13°C° 0 mm 1 mps 734 mmHg 54%
    11:00 +13°C° 0 mm 2 mps 733 mmHg 51%
    12:00 +14°C° 0 mm 2 mps 733 mmHg 48%
    13:00 +15°C° 0 mm 2 mps 732 mmHg 47%
    14:00 +15°C° 0 mm 2 mps 732 mmHg 46%
    15:00 +16°C° 0 mm 3 mps 732 mmHg 45%
    16:00 +14°C° 0 mm 3 mps 732 mmHg 47%
    17:00 +14°C° 0 mm 3 mps 732 mmHg 50%
    18:00 +13°C° 0 mm 4 mps 732 mmHg 52%
    19:00 +12°C° 0 mm 4 mps 732 mmHg 55%
    20:00 +11°C° 0 mm 4 mps 733 mmHg 57%
    21:00 +11°C° 0 mm 4 mps 733 mmHg 60%
    22:00 +10°C° 0 mm 4 mps 734 mmHg 62%
    23:00 +9°C° 0 mm 3 mps 734 mmHg 64%

    25 April, Thursday

    Time Temperature Precipitation Wind Pressure Humidity
    00:00 +9°C° 0 mm 3 mps 734 mmHg 65%
    01:00 +8°C° 0 mm 2 mps 734 mmHg 68%
    02:00 +8°C° 0 mm 2 mps 734 mmHg 70%
    03:00 +8°C° 0 mm 1 mps 734 mmHg 72%
    04:00 +8°C° 0 mm 1 mps 734 mmHg 72%
    05:00 +8°C° 0 mm 1 mps 734 mmHg 72%
    06:00 +8°C° 0 mm 1 mps 734 mmHg 72%
    07:00 +9°C° 0 mm 1 mps 734 mmHg 67%
    08:00 +11°C° 0 mm 1 mps 734 mmHg 62%
    09:00 +12°C° 0 mm 2 mps 734 mmHg 57%
    10:00 +13°C° 0 mm 2 mps 734 mmHg 54%
    11:00 +14°C° 0 mm 2 mps 733 mmHg 50%
    12:00 +15°C° 0 mm 2 mps 733 mmHg 47%
    13:00 +15°C° 0 mm 2 mps 733 mmHg 46%
    14:00 +14°C° 0 mm 3 mps 732 mmHg 45%
    15:00 +16°C° 0 mm 3 mps 732 mmHg 43%
    16:00 +16°C° 0 mm 3 mps 732 mmHg 45%
    17:00 +15°C° 0 mm 2 mps 732 mmHg 47%
    18:00 +15°C° 0 mm 2 mps 732 mmHg 49%
    19:00 +14°C° 0 mm 2 mps 733 mmHg 52%
    20:00 +13°C° 0 mm 2 mps 733 mmHg 54%
    21:00 +12°C° 0 mm 1 mps 734 mmHg 57%
    22:00 +11°C° 0 mm 1 mps 734 mmHg 59%
    23:00 +11°C° 0 mm 1 mps 734 mmHg 60%
    Show more